| time (UTC) | temp F | wind direction | speed MPH | gust MPH | rain 1hr in | rain 24hr in | rain mn in | humidity % | barometer mb |
| 20260903223055 | 60 | 14 | 0.0 | 1.0 | 0.00 | 0.21 | 0.21 | 89 | 996.0 |
| 20260903221555 | 61 | 103 | 0.0 | 3.0 | 0.00 | 0.21 | 0.21 | 84 | 996.0 |
| 20260903220105 | 62 | 161 | 0.0 | 2.0 | 0.00 | 0.21 | 0.21 | 82 | 995.7 |
| 20260903214556 | 62 | 205 | 0.0 | 2.0 | 0.00 | 0.21 | 0.21 | 82 | 995.4 |
| 20260903213059 | 63 | 190 | 0.0 | 1.0 | 0.00 | 0.21 | 0.21 | 82 | 995.6 |
| 20260903211558 | 64 | 113 | 0.0 | 1.0 | 0.00 | 0.21 | 0.21 | 79 | 995.4 |
| 20260903210104 | 65 | 99 | 0.0 | 1.0 | 0.00 | 0.21 | 0.21 | 77 | 995.3 |
| 20260903204552 | 65 | 95 | 0.0 | 2.0 | 0.00 | 0.21 | 0.21 | 76 | 995.3 |
| 20260903203113 | 66 | 77 | 0.0 | 1.0 | 0.00 | 0.21 | 0.21 | 73 | 995.2 |
| 20260903201551 | 66 | 205 | 0.0 | 4.0 | 0.00 | 0.21 | 0.21 | 76 | 995.1 |
| 20260903200051 | 68 | 196 | 0.0 | 0.0 | 0.00 | 0.21 | 0.21 | 71 | 994.7 |
| 20260903194555 | 70 | 207 | 0.0 | 1.0 | 0.00 | 0.21 | 0.21 | 70 | 994.7 |
| 20260903193049 | 71 | 203 | 0.0 | 2.0 | 0.00 | 0.21 | 0.21 | 61 | 994.7 |
| 20260903191553 | 71 | 210 | 0.0 | 0.0 | 0.00 | 0.21 | 0.21 | 67 | 994.9 |
| 20260903190049 | 73 | 183 | 0.0 | 2.0 | 0.00 | 0.21 | 0.21 | 65 | 994.7 |
| 20260903184545 | 71 | 124 | 0.0 | 3.0 | 0.00 | 0.21 | 0.21 | 69 | 994.7 |
| 20260903183045 | 70 | 205 | 0.0 | 1.0 | 0.00 | 0.21 | 0.21 | 72 | 994.4 |
| 20260903181538 | 68 | 56 | 0.0 | 0.0 | 0.00 | 0.21 | 0.21 | 76 | 994.4 |
| 20260903180036 | 66 | 57 | 0.0 | 0.0 | 0.00 | 0.21 | 0.21 | 79 | 994.6 |
| 20260903174535 | 67 | 57 | 0.0 | 0.0 | 0.00 | 0.21 | 0.21 | 80 | 994.9 |
| 20260903173032 | 65 | 58 | 0.0 | 0.0 | 0.00 | 0.21 | 0.21 | 82 | 994.9 |
| 20260903171545 | 65 | 59 | 0.0 | 0.0 | 0.00 | 0.21 | 0.21 | 85 | 994.8 |
| 20260903170031 | 64 | 58 | 0.0 | 0.0 | 0.00 | 0.21 | 0.21 | 87 | 994.7 |
| 20260903164533 | 63 | 59 | 0.0 | 0.0 | 0.00 | 0.21 | 0.21 | 88 | 994.8 |
| 20260903163027 | 62 | 57 | 0.0 | 0.0 | 0.00 | 0.21 | 0.21 | 91 | 995.2 |
| 20260903161529 | 62 | 57 | 0.0 | 0.0 | 0.00 | 0.21 | 0.21 | 92 | 995.2 |
| 20260903160032 | 61 | 57 | 0.0 | 1.0 | 0.00 | 0.21 | 0.21 | 92 | 995.4 |
| 20260903154534 | 61 | 58 | 0.0 | 0.0 | 0.00 | 0.21 | 0.21 | 94 | 995.3 |
| 20260903153027 | 60 | 44 | 0.0 | 0.0 | 0.00 | 0.21 | 0.21 | 96 | 995.3 |
| 20260903151524 | 59 | 329 | 0.0 | 1.0 | 0.00 | 0.21 | 0.21 | 96 | 994.9 |
| 20260903150026 | 59 | 41 | 0.0 | 1.0 | 0.00 | 0.21 | 0.21 | 96 | 995.1 |
| 20260903144539 | 59 | 56 | 0.0 | 0.0 | 0.01 | 0.21 | 0.21 | 96 | 995.5 |
| 20260903143022 | 60 | 58 | 0.0 | 0.0 | 0.03 | 0.21 | 0.21 | 96 | 995.6 |
| 20260903141512 | 59 | 58 | 0.0 | 0.0 | 0.05 | 0.21 | 0.21 | 96 | 995.8 |
| 20260903140010 | 59 | 58 | 0.0 | 0.0 | 0.06 | 0.21 | 0.21 | 96 | 995.7 |
| 20260903134505 | 59 | 58 | 0.0 | 0.0 | 0.07 | 0.20 | 0.20 | 96 | 995.7 |
| 20260903133007 | 59 | 58 | 0.0 | 0.0 | 0.06 | 0.18 | 0.18 | 96 | 995.9 |
| 20260903131503 | 59 | 57 | 0.0 | 0.0 | 0.04 | 0.17 | 0.17 | 96 | 995.8 |
| 20260903130002 | 59 | 56 | 0.0 | 0.0 | 0.04 | 0.16 | 0.16 | 95 | 995.7 |
| 20260903124502 | 59 | 56 | 0.0 | 0.0 | 0.02 | 0.13 | 0.13 | 95 | 995.9 |
| 20260903123059 | 59 | 56 | 0.0 | 0.0 | 0.05 | 0.13 | 0.13 | 95 | 995.7 |
| 20260903121608 | 59 | 55 | 0.0 | 0.0 | 0.08 | 0.13 | 0.13 | 95 | 995.8 |
| 20260903120104 | 59 | 53 | 0.0 | 0.0 | 0.08 | 0.12 | 0.12 | 95 | 996.0 |
| 20260903114554 | 59 | 52 | 0.0 | 0.0 | 0.10 | 0.11 | 0.11 | 94 | 996.0 |
| 20260903113130 | 59 | 51 | 0.0 | 0.0 | 0.07 | 0.07 | 0.07 | 93 | 996.1 |
| 20260903111548 | 59 | 49 | 0.0 | 0.0 | 0.05 | 0.05 | 0.05 | 92 | 996.2 |
| 20260903110045 | 60 | 48 | 0.0 | 1.0 | 0.04 | 0.04 | 0.04 | 90 | 996.2 |
| 20260903104555 | 61 | 47 | 0.0 | 1.0 | 0.01 | 0.01 | 0.01 | 87 | 996.5 |
| 20260903103040 | 61 | 45 | 0.0 | 0.0 | 0.00 | 0.00 | 0.00 | 84 | 996.3 |
| 20260903101538 | 62 | 45 | 0.0 | 0.0 | 0.00 | 0.00 | 0.00 | 83 | 996.2 |
| 20260903100137 | 62 | 46 | 0.0 | 0.0 | 0.00 | 0.00 | 0.00 | 83 | 996.1 |
| 20260903094548 | 62 | 44 | 0.0 | 0.0 | 0.00 | 0.00 | 0.00 | 82 | 996.0 |
| 20260903093039 | 62 | 45 | 0.0 | 0.0 | 0.00 | 0.00 | 0.00 | 82 | 996.0 |
| 20260903091547 | 62 | 46 | 0.0 | 0.0 | 0.00 | 0.00 | 0.00 | 83 | 996.1 |
| 20260903090043 | 62 | 45 | 0.0 | 0.0 | 0.00 | 0.00 | 0.00 | 82 | 996.0 |
| 20260903084531 | 62 | 46 | 0.0 | 0.0 | 0.00 | 0.00 | 0.00 | 81 | 996.0 |
| 20260903083029 | 63 | 46 | 0.0 | 0.0 | 0.00 | 0.00 | 0.00 | 81 | 996.1 |
| 20260903081525 | 63 | 46 | 0.0 | 0.0 | 0.00 | 0.00 | 0.00 | 80 | 996.4 |
| 20260903080024 | 63 | 46 | 0.0 | 0.0 | 0.00 | 0.00 | 0.00 | 80 | 997.0 |
| 20260903074521 | 64 | 46 | 0.0 | 2.0 | 0.00 | 0.00 | 0.00 | 78 | 997.0 |
| 20260903073030 | 65 | 23 | 0.0 | 0.0 | 0.00 | 0.00 | 0.00 | 78 | 996.9 |
| 20260903071525 | 65 | 24 | 0.0 | 1.0 | 0.00 | 0.00 | 0.00 | 77 | 996.9 |
| 20260903070015 | 65 | 121 | 0.0 | 2.0 | 0.00 | 0.00 | 0.00 | 76 | 996.9 |
| 20260903064512 | 66 | 26 | 0.0 | 0.0 | 0.00 | 0.00 | 0.00 | 76 | 996.7 |
| 20260903063012 | 66 | 24 | 0.0 | 0.0 | 0.00 | 0.00 | 0.00 | 75 | 996.7 |
| 20260903061509 | 66 | 27 | 0.0 | 0.0 | 0.00 | 0.00 | 0.00 | 75 | 996.8 |
| 20260903060006 | 66 | 333 | 0.0 | 2.0 | 0.00 | 0.00 | 0.00 | 74 | 997.0 |
| 20260903054505 | 67 | 14 | 0.0 | 2.0 | 0.00 | 0.00 | 0.00 | 72 | 997.0 |
| 20260903053004 | 67 | 65 | 0.0 | 1.0 | 0.00 | 0.00 | 0.00 | 72 | 996.8 |
| 20260903051503 | 67 | 64 | 0.0 | 1.0 | 0.00 | 0.00 | 0.00 | 72 | 996.7 |
| 20260903050002 | 68 | 63 | 0.0 | 3.0 | 0.00 | 0.00 | 0.00 | 71 | 996.5 |
| 20260903044502 | 68 | 80 | 0.0 | 4.0 | 0.00 | 0.00 | 0.00 | 71 | 996.5 |
| 20260903043004 | 68 | 72 | 0.0 | 6.0 | 0.00 | 0.00 | 0.00 | 70 | 996.7 |
| 20260903041502 | 68 | 2 | 1.0 | 6.0 | 0.00 | 0.00 | 0.00 | 70 | 996.8 |
| 20260903040003 | 69 | 124 | 1.0 | 6.0 | 0.00 | 0.00 | 0.00 | 69 | 997.0 |
| 20260903034600 | 69 | 60 | 1.0 | 4.0 | 0.00 | 0.00 | 0.00 | 68 | 996.9 |
| 20260903033059 | 70 | 99 | 0.0 | 3.0 | 0.00 | 0.00 | 0.00 | 67 | 997.0 |
| 20260903031602 | 71 | 63 | 1.0 | 3.0 | 0.00 | 0.00 | 0.00 | 65 | 997.0 |
| 20260903030057 | 71 | 23 | 0.0 | 3.0 | 0.00 | 0.00 | 0.00 | 64 | 996.8 |
| 20260903024604 | 72 | 71 | 0.0 | 4.0 | 0.00 | 0.00 | 0.00 | 62 | 996.7 |
| 20260903023056 | 73 | 358 | 1.0 | 3.0 | 0.00 | 0.00 | 0.00 | 61 | 996.6 |
| 20260903021556 | 74 | 60 | 0.0 | 4.0 | 0.00 | 0.00 | 0.00 | 61 | 996.5 |
| 20260903020055 | 75 | 60 | 0.0 | 3.0 | 0.00 | 0.00 | 0.00 | 59 | 996.6 |
| 20260903014555 | 76 | 115 | 0.0 | 2.0 | 0.00 | 0.00 | 0.00 | 57 | 996.6 |
| 20260903013105 | 76 | 131 | 0.0 | 5.0 | 0.00 | 0.00 | 0.00 | 55 | 996.7 |
| 20260903011552 | 77 | 17 | 0.0 | 2.0 | 0.00 | 0.00 | 0.00 | 54 | 996.6 |
| 20260903010051 | 78 | 23 | 0.0 | 3.0 | 0.00 | 0.00 | 0.00 | 52 | 996.8 |
| 20260903004549 | 77 | 13 | 0.0 | 0.0 | 0.00 | 0.00 | 0.00 | 53 | 996.8 |
| 20260903003050 | 77 | 20 | 0.0 | 0.0 | 0.00 | 0.00 | 0.00 | 54 | 997.1 |
| 20260903001546 | 77 | 26 | 0.0 | 0.0 | 0.00 | 0.00 | 0.00 | 55 | 997.2 |
| 20260903000046 | 78 | 26 | 0.0 | 2.0 | 0.00 | 0.00 | 0.00 | 55 | 997.4 |
| 20260902234552 | 78 | 25 | 0.0 | 1.0 | 0.00 | 0.00 | 0.00 | 55 | 997.6 |
| 20260902233041 | 77 | 27 | 0.0 | 3.0 | 0.00 | 0.00 | 0.00 | 54 | 997.6 |
| 20260902231539 | 77 | 15 | 0.0 | 1.0 | 0.00 | 0.00 | 0.00 | 55 | 997.8 |
| 20260902230034 | 75 | 20 | 0.0 | 1.0 | 0.00 | 0.00 | 0.00 | 55 | 998.0 |
| 20260902224543 | 75 | 356 | 0.0 | 0.0 | 0.00 | 0.00 | 0.00 | 57 | 998.1 |